Location: Newark
(43.0000°N, 1.6781°W)
Time: 07:02:44
(UTC+00:00)

Envisat - Visible Passes

Search period start: 02 December 2021 00:00
Search period end: 12 December 2021 00:00
Orbit: 764 x 766 km, 98.2° (Epoch: 01 December)

Date Brightness Start Highest point End Pass type
(mag) Time Alt. Az. Time Alt. Az. Time Alt. Az.
02 Dec 3.0 05:08:53 10° NNE 05:14:00 81° ESE 05:19:04 10° S visible
03 Dec 4.4 04:32:20 10° NNE 04:37:02 36° E 04:41:41 10° SSE visible
03 Dec 3.8 06:11:36 10° N 06:15:54 28° WNW 06:20:10 10° SW visible
03 Dec 5.8 17:28:12 10° SW 17:31:47 19° W 17:35:22 10° NW visible
04 Dec 5.6 03:56:35 10° NE 03:59:52 17° E 04:03:06 10° SE visible
04 Dec 3.0 05:34:16 10° N 05:39:16 59° WNW 05:44:14 10° SSW visible
05 Dec 3.4 04:57:22 10° NNE 05:02:25 64° E 05:07:28 10° S visible
05 Dec 4.3 06:37:39 10° NNW 06:40:55 18° WNW 06:44:11 10° WSW visible
05 Dec 6.4 17:56:23 10° W 17:57:24 11° W 17:58:25 10° WNW visible
06 Dec 4.8 04:21:00 10° NE 04:25:24 29° E 04:29:46 10° SSE visible
06 Dec 3.5 05:59:50 10° N 06:04:26 35° WNW 06:09:00 10° SW visible
06 Dec 5.6 17:16:03 10° SSW 17:20:07 24° W 17:24:13 10° NW visible
07 Dec 5.9 03:45:48 10° ENE 03:48:10 13° E 03:50:31 10° ESE visible
07 Dec 2.8 05:22:38 10° N 05:27:44 75° WNW 05:32:47 10° SSW visible
08 Dec 3.8 04:45:54 10° NNE 04:50:50 50° E 04:55:45 10° S visible
08 Dec 4.1 06:25:42 10° NNW 06:29:30 22° WNW 06:33:17 10° WSW visible
08 Dec 6.0 17:43:07 10° WSW 17:45:41 14° W 17:48:17 10° WNW visible
09 Dec 5.2 04:09:44 10° NE 04:13:45 23° E 04:17:44 10° SE visible
09 Dec 3.2 05:48:07 10° N 05:52:56 44° WNW 05:57:44 10° SW visible
09 Dec 5.2 17:04:02 10° SSW 17:08:28 30° W 17:12:57 10° NW visible
10 Dec 2.9 05:11:04 10° NNE 05:16:11 86° ESE 05:21:16 10° SSW visible
10 Dec 4.6 06:52:09 10° NNW 06:54:28 13° WNW 06:56:47 10° W visible
11 Dec 4.3 04:34:28 10° NNE 04:39:14 39° E 04:43:57 10° SSE visible
11 Dec 3.9 06:13:51 10° N 06:18:03 27° WNW 06:22:14 10° WSW visible
11 Dec 5.9 17:30:37 10° SW 17:33:59 18° W 17:37:24 10° NW visible
